ATLAS 5 CENTAUR DEB, 44667

Orbit data source: Space-Track

ATLAS 5 CENTAUR DEB, 44667 is space debris in HEO originally from a launch on Wed, 17 Oct 2018 UTC launched from the Air Force Eastern Test Range (AFETR). Debris objects in space refer to the collection of defunct objects orbiting the Earth. Examples of debris include non-operational satellites, rocket bodies, and fragments generated from explosions, collisions, or faulty payload assembly.

Loading next visibility...
Identifier
44667, 2018-079AD
Orbit
HEO
Last TLE update
2 days ago
Origin
Flag of USUnited Launch Alliance/Lockheed Martin (US)
Manufacturer
ULA Decatur
Mission
Spacecraft
Bus & Motor
Unknown
Mass
Unknown
Launch date (UTC)
2018-10-17 (7 years ago)
Launch vehicle
Unknown
Launch site
Air Force Eastern Test Range (AFETR)
Object type
Payload
Rocket body
Debris
Shape & HBR
Unknown
Radar Cross Section
RCS unknown

Expand to show TLE details & history

TLE from 2 days ago
0 ATLAS 5 CENTAUR DEB
1 44667U 18079AD  25180.39838950 -.00000125  00000-0  00000-0 0  9992
2 44667  13.1350  46.8523 4560529 296.0158  24.3110  1.90795727 11439
Epoch: 2025-06-29T09:33Z
TLE epoch observation values (Epoch: 2025-06-29T09:33:40.852Z)
Latitude
0.00008°
Longitude
-14.29263°
Altitude
11,772.433 km
Speed
5.423 km/s
True Right ascension
03h 07m 24s
True Declination
0° 00' 00"
Sunlit
Object was in daylight at epoch
Visualization orbit readout
Latitude
-6.33293°
Longitude
-166.1638°
Altitude
14,930.911 km
Speed
4.785 km/s
Apparent Right ascension
16h 07m 34s
Apparent Declination
-18° 06' 11"
Sunlit
Object is in daylight
Visualization observer readout
Local Sidereal Time
21:20:24
Azimuth
248.69° W
Elevation
-2.89°
Doppler factor
1
Orbital elements
Apogee altitude
33,607.133 km
Perigee altitude
8,559.419 km
Semi-major axis
27,461.413 km
Eccentricity
0.45605
Inclination
13.135°
RAAN
46.8523°
Arg. of periapsis
296.0158°
True anomaly
Unknown
Mean anomaly
24.311°
Eccentric anomaly
Unknown
Mean motion
0.47693 °/min
Orbital period
754.82 mins
BSTAR
0
Loading maneuver chart data...
Loading SW <> Apogee altitude chart data...

ATLAS 5 CENTAUR DEB Visibility forecast

Observer location: undefined°, undefined°

Span
Click to sort rows by Start time (UTC) header in descending order
Start Az.
Max El. time (UTC)
Max El. Az.
Max El.
End time (UTC)
End Az.
52 mins2025-07-01 10:43:05.054Z201.494° SSW2025-07-01 11:08:05.054Z165.408° S13.623°2025-07-01 11:35:05.054Z130.226° SE
|